Location: Newark
(45.2500°N, 7.5833°E)
Time: 01:49:33
(UTC+00:00)

BEESAT 2 - Pass Details

Date: 01 March 2020
Orbit: 494 x 533 km, 64.9° (Epoch: 06 April)

Event Time Altitude Azimuth Distance (km) Brightness Sun altitude
Rises 18:04:14 0° 327° (NNW) 2,688 ? -9.0°
Reaches altitude 10° 18:06:29 10° 332° (NNW) 1,794 ? -9.4°
Maximum altitude 18:10:26 56° 51° (NE) 642 ? -10.1°
Drops below altitude 10° 18:14:22 10° 130° (SE) 1,777 ? -10.8°
Enters shadow 18:14:39 - 131° (SE) 1,887 ? -10.9°
